This is the latest recevied weather packets stored in our database for station/object WX6HNX-2. If no packets are shown the sender has not sent any weather packets the latest 10 day(s).
| Time | Temp. | Humidity | Pressure | Rain* | Wind** | Luminosity | Snow |
|---|---|---|---|---|---|---|---|
| 1777400862 | 17.22° C | 62% | 1019.1 hPa | 0 mm | - | - | - |
| 1777400622 | 17.22° C | 62% | 1019.1 hPa | 0 mm | - | - | - |
| 1777400350 | 17.22° C | 64% | 1019 hPa | 0 mm | - | - | - |
| 1777400110 | 16.67° C | 64% | 1019.2 hPa | 0 mm | - | - | - |
| 1777399870 | 16.67° C | 64% | 1019.1 hPa | 0 mm | - | - | - |
| 1777399481 | 17.22° C | 63% | 1019.1 hPa | 0 mm | - | - | - |
| 1777399241 | 17.22° C | 65% | 1019.2 hPa | 0 mm | - | - | - |
| 1777399001 | 17.22° C | 65% | 1019.2 hPa | 0 mm | - | - | - |
| 1777398761 | 17.22° C | 65% | 1019.2 hPa | 0 mm | - | - | - |
| 1777398281 | 16.67° C | 64% | 1019.1 hPa | 0 mm | - | - | - |
| 1777398041 | 16.67° C | 63% | 1019.1 hPa | 0 mm | - | - | - |
| 1777397801 | 16.67° C | 65% | 1019.1 hPa | 0 mm | - | - | - |
| 1777397561 | 16.11° C | 63% | 1019 hPa | 0 mm | - | - | - |
| 1777397082 | 16.11° C | 65% | 1018.8 hPa | 0 mm | - | - | - |
| 1777396841 | 16.11° C | 65% | 1018.8 hPa | 0 mm | - | - | - |
| 1777396601 | 16.11° C | 65% | 1018.8 hPa | 0 mm | - | - | - |
| 1777396361 | 16.11° C | 65% | 1018.8 hPa | 0 mm | - | - | - |
| 1777396121 | 16.11° C | 69% | 1018.8 hPa | 0 mm | - | - | - |
| 1777395881 | 16.11° C | 68% | 1018.7 hPa | 0 mm | - | - | - |
| 1777395414 | 15° C | 69% | 1018.7 hPa | 0 mm | - | - | - |
| 1777395174 | 15° C | 68% | 1018.7 hPa | 0 mm | - | - | - |
| 1777394934 | 14.44° C | 66% | 1018.7 hPa | 0 mm | - | - | - |
| 1777394694 | 14.44° C | 68% | 1018.6 hPa | 0 mm | - | - | - |
| 1777394454 | 14.44° C | 73% | 1018.6 hPa | 0 mm | - | - | - |
| 1777394214 | 13.89° C | 74% | 1018.6 hPa | 0 mm | - | - | - |
* Rain latest hour (hover to see other rain measurements)
** Current wind speed in m/s (hover to see current wind gust speed)